Date,TemperatureHighF,TemperatureAvgF,TemperatureLowF,DewpointHighF,DewpointAvgF,DewpointLowF,HumidityHigh,HumidityAvg,HumidityLow,PressureMaxIn,PressureMinIn,WindSpeedMaxMPH,WindSpeedAvgMPH,GustSpeedMaxMPH,PrecipitationSumIn
2012-1-1,42.0,35.0,28.0,37.0,22.1,14.0,93,61,37,0.00,40.00,32,23,45,0.01
2012-1-2,29.0,24.0,17.0,17.0,11.4,7.0,74,58,41,0.00,40.00,31,17,41,0.00
2012-1-3,38.0,28.0,11.0,18.0,11.8,10.0,94,53,32,0.00,40.00,14,-12,24,0.00
2012-1-4,48.0,37.5,32.0,31.0,27.1,18.0,89,67,45,0.00,40.00,19,7,24,0.00
2012-1-5,66.0,47.7,29.0,32.0,28.8,25.0,91,51,25,0.00,40.00,13,4,19,0.00
2012-1-6,57.0,46.7,37.0,37.0,32.0,28.0,78,57,37,0.00,40.00,17,5,23,0.00
2012-1-7,43.0,34.2,26.0,30.0,27.3,25.0,96,77,52,0.00,40.00,12,4,16,0.00
2012-1-8,44.0,31.5,25.0,32.0,27.1,24.0,97,85,50,0.00,40.00,5,1,6,0.00
2012-1-9,51.0,36.6,22.0,33.0,25.2,21.0,97,68,38,0.00,40.00,16,5,22,0.00
2012-1-10,58.0,39.4,27.0,32.0,26.8,22.0,94,66,28,0.00,40.00,12,3,17,0.00
2012-1-19,11.0,7.1,4.0,-2.0,-4.9,-7.0,63,57,52,0.00,40.00,12,6,17,0.00
2012-1-20,15.0,10.7,4.0,13.0,4.1,-6.0,93,74,62,0.00,40.00,13,9,19,0.00
2012-1-21,25.0,18.8,12.0,21.0,14.8,9.0,92,84,74,0.00,40.00,15,8,22,0.00
2012-1-22,38.0,34.5,28.0,38.0,33.9,28.0,97,97,97,0.00,40.00,21,9,27,0.00
2012-1-23,38.0,31.8,29.0,37.0,26.8,22.0,97,81,70,0.00,40.00,22,14,34,0.00
2012-1-24,40.0,30.2,26.0,26.0,21.8,-99.9,90,72,49,0.00,40.00,12,-2,16,0.00
2012-1-25,41.0,33.1,27.0,32.0,28.6,25.0,92,83,65,0.00,40.00,13,6,18,0.00
2012-1-26,48.0,37.4,33.0,41.0,31.9,-99.9,97,83,50,0.00,40.00,19,-1,25,0.00
2012-1-27,38.0,32.2,27.0,34.0,26.5,-99.9,96,83,59,0.00,40.00,20,-9,30,0.02
2012-1-28,43.0,33.3,26.0,23.0,18.2,-99.9,73,55,32,0.00,40.00,19,2,29,0.00
2012-1-29,41.0,33.5,30.0,22.0,16.2,-99.9,71,51,38,0.00,40.00,15,-7,21,0.00
2012-1-30,65.0,49.0,32.0,41.0,27.6,-99.9,68,46,29,0.00,40.00,17,-5,29,0.00
2012-1-31,62.0,52.2,36.0,51.0,41.3,-99.9,93,69,47,0.00,40.00,17,-6,27,0.00
2012-2-1,60.0,40.4,28.0,40.0,33.2,-99.9,97,80,39,0.00,40.00,7,-4,10,0.00
2012-2-2,58.0,39.4,26.0,41.0,31.0,-99.9,97,77,39,0.00,40.00,10,-4,14,0.00
2012-2-3,41.0,36.2,34.0,39.0,34.4,-99.9,97,94,89,0.00,40.00,19,1,29,0.01
2012-2-4,37.0,34.6,34.0,36.0,31.8,-99.9,96,92,81,0.00,40.00,17,-4,30,0.21
2012-2-5,36.0,30.9,27.0,33.0,28.5,-99.9,96,92,82,0.00,40.00,13,0,19,0.00
2012-2-6,41.0,30.0,24.0,31.0,27.2,24.0,97,90,66,0.00,40.00,9,4,12,0.00
2012-2-7,34.0,30.7,28.0,33.0,29.3,26.0,96,94,89,0.00,40.00,13,6,17,0.01
2012-2-8,32.0,27.7,19.0,28.0,22.4,16.0,95,80,58,0.00,40.00,11,5,14,0.00
2012-2-9,33.0,25.3,14.0,30.0,21.1,12.0,94,84,72,0.00,40.00,8,4,12,0.00
2012-2-10,35.0,23.7,14.0,31.0,15.2,-99.9,87,72,63,0.00,40.00,22,-2,32,0.00
2012-2-11,23.0,15.0,8.0,5.0,1.9,-1.0,68,56,41,0.00,40.00,21,13,29,0.00
2012-2-12,37.0,21.8,10.0,14.0,3.6,0.0,64,47,24,0.00,40.00,11,5,17,0.00
2012-2-13,34.0,30.8,27.0,31.0,24.1,10.0,96,79,41,0.00,40.00,14,6,24,0.02
2012-2-14,42.0,34.9,31.0,32.0,30.6,29.0,96,85,64,0.00,40.00,11,4,16,0.00
2012-2-15,46.0,37.2,30.0,38.0,34.4,29.0,96,89,69,0.00,40.00,8,4,11,0.00
2012-2-16,48.0,37.3,27.0,34.0,27.0,19.0,97,71,33,0.00,40.00,16,7,24,0.00
2012-2-17,53.0,40.0,26.0,31.0,27.3,24.0,93,64,34,0.00,40.00,17,7,28,0.00
2012-2-18,43.0,32.3,24.0,28.0,22.8,20.0,91,70,44,0.00,40.00,12,4,16,0.00
2012-2-19,46.0,33.3,23.0,30.0,22.9,17.0,97,69,35,0.00,40.00,9,4,13,0.00
2012-2-20,49.0,38.2,28.0,31.0,26.0,22.0,80,62,47,0.00,40.00,17,10,27,0.00
2012-2-21,50.0,43.2,38.0,40.0,29.8,24.0,92,60,39,0.00,40.00,22,10,31,0.02
2012-2-22,56.0,44.1,36.0,35.0,31.7,29.0,91,63,40,0.00,40.00,17,5,24,0.00
2012-2-23,40.0,37.7,33.0,39.0,36.3,32.0,97,94,85,0.00,40.00,16,6,24,0.41
2012-2-24,34.0,31.6,29.0,33.0,25.7,17.0,98,79,55,0.00,40.00,24,14,38,0.27
2012-2-25,37.0,27.6,20.0,23.0,17.6,13.0,77,66,44,0.00,40.00,22,9,34,0.01
2012-2-26,61.0,43.6,30.0,31.0,25.1,17.0,87,50,25,0.00,40.00,18,11,29,0.00
2012-2-27,42.0,32.4,25.0,29.0,21.2,15.0,82,63,42,0.00,40.00,16,8,24,0.00
2012-2-28,55.0,41.5,31.0,48.0,32.8,25.0,91,72,45,0.00,40.00,17,10,24,0.02
2012-2-29,54.0,42.7,34.0,53.0,30.9,24.0,95,63,49,0.00,40.00,27,17,44,0.20
2012-3-1,51.0,39.3,31.0,35.0,29.8,-99.9,87,71,47,0.00,40.00,13,0,21,0.00
2012-3-2,42.0,35.7,32.0,37.0,30.6,-99.9,97,84,55,0.00,40.00,20,3,29,0.31
2012-3-3,39.0,32.5,26.0,24.0,20.1,-99.9,74,61,47,0.00,40.00,24,7,34,0.00
2012-3-4,32.0,26.7,21.0,29.0,20.9,-99.9,95,83,68,0.00,40.00,14,-17,19,0.06
2012-3-5,47.0,32.5,18.0,27.0,21.2,-99.9,96,68,41,0.00,40.00,16,-7,24,0.00
2012-3-6,74.0,57.7,36.0,40.0,33.8,25.0,67,42,27,0.00,40.00,26,13,40,0.00
2012-3-7,69.0,56.8,38.0,54.0,42.9,-99.9,96,65,41,0.00,40.00,23,-9,32,0.02
2012-3-8,49.0,39.3,32.0,36.0,24.1,17.0,96,58,29,0.00,40.00,25,12,38,0.00
2012-3-9,52.0,38.9,29.0,24.0,18.0,13.0,67,44,25,0.00,40.00,12,6,16,0.00
2012-3-10,66.0,50.3,35.0,32.0,26.8,-99.9,64,43,26,0.00,40.00,19,8,30,0.00
2012-3-11,64.0,50.4,38.0,54.0,40.4,31.0,95,71,41,0.00,40.00,21,9,28,0.02
2012-3-12,63.0,54.8,46.0,52.0,48.9,44.0,95,81,60,0.00,40.00,17,7,27,0.03
2012-3-13,77.0,56.6,37.0,52.0,45.4,36.0,96,71,36,0.00,40.00,11,5,19,0.00
2012-3-14,81.0,68.9,60.0,63.0,57.4,46.0,88,67,49,0.00,40.00,16,8,24,0.00
2012-3-15,82.0,71.2,63.0,64.0,61.4,57.0,92,73,44,0.00,40.00,12,6,19,0.00
2012-3-16,83.0,70.8,60.0,65.0,60.4,57.0,95,72,43,0.00,40.00,17,7,26,0.00
2012-3-17,83.0,70.4,60.0,63.0,59.6,52.0,94,70,47,0.00,40.00,19,10,29,0.00
2012-3-18,80.0,69.5,60.0,61.0,59.3,55.0,89,71,50,0.00,40.00,21,10,29,0.00
2012-3-19,82.0,70.2,60.0,65.0,61.4,58.0,95,75,46,0.00,40.00,21,10,37,0.13
2012-3-20,78.0,65.2,58.0,60.0,56.1,-99.9,95,77,43,0.00,40.00,20,9,34,0.01
2012-3-21,75.0,66.0,60.0,64.0,59.1,56.0,95,79,56,0.00,40.00,12,6,16,0.11
2012-3-22,70.0,59.8,50.0,62.0,53.7,-99.9,95,82,62,0.00,40.00,13,-2,22,0.02
2012-3-23,65.0,55.5,50.0,56.0,50.8,48.0,96,85,58,0.00,40.00,14,4,21,0.00
2012-3-24,69.0,59.7,50.0,60.0,55.6,48.0,95,86,69,0.00,40.00,9,5,14,0.03
2012-3-25,81.0,62.1,50.0,64.0,53.3,49.0,96,77,37,0.00,40.00,7,3,12,0.00
2012-3-26,65.0,56.7,49.0,56.0,43.3,32.0,94,64,39,0.00,40.00,21,12,29,0.03
2012-3-27,78.0,64.3,50.0,60.0,51.3,33.0,80,63,49,0.00,40.00,21,11,34,0.01
2012-3-28,75.0,62.8,47.0,59.0,44.0,36.0,95,55,27,0.00,40.00,12,5,16,0.00
2012-3-29,61.0,56.4,53.0,53.0,46.5,36.0,84,70,40,0.00,40.00,17,3,24,0.05
2012-3-30,61.0,55.1,49.0,56.0,52.1,48.0,95,89,79,0.00,40.00,24,5,34,0.06
2012-3-31,74.0,59.9,51.0,60.0,53.6,49.0,95,81,56,0.00,40.00,12,8,18,0.00
2012-4-1,89.0,73.3,59.0,64.0,60.0,56.0,94,67,35,0.00,40.00,12,4,18,0.00
2012-4-2,88.0,69.8,55.0,65.0,58.9,54.0,94,71,44,0.00,40.00,14,9,20,0.00
2012-4-3,76.0,65.7,56.0,62.0,55.5,50.0,95,72,47,0.00,40.00,15,7,23,0.00
2012-4-4,66.0,58.2,52.0,51.0,42.5,32.0,81,57,37,0.00,40.00,18,10,26,0.00
2012-4-5,63.0,54.0,45.0,38.0,32.2,28.0,57,44,31,0.00,40.00,18,10,24,0.00
2012-4-6,64.0,50.0,36.0,37.0,32.0,26.0,67,50,34,0.00,40.00,12,7,17,0.00
2012-4-7,55.0,48.8,44.0,53.0,45.0,37.0,96,87,66,0.00,40.00,11,4,18,0.15
2012-4-8,67.0,52.7,35.0,44.0,33.9,28.0,97,57,24,0.00,40.00,14,5,22,0.00
2012-4-9,67.0,55.8,40.0,38.0,30.0,20.0,90,40,23,0.00,40.00,21,9,32,0.01
2012-4-10,59.0,46.8,34.0,31.0,23.8,20.0,78,42,23,0.00,40.00,24,9,32,0.00
2012-4-11,59.0,44.4,30.0,36.0,25.2,20.0,84,48,29,0.00,40.00,10,5,16,0.00
2012-4-12,66.0,50.6,31.0,39.0,31.3,28.0,96,55,26,0.00,40.00,12,5,19,0.00
2012-4-13,57.0,52.4,47.0,52.0,44.8,30.0,95,78,35,0.00,40.00,19,10,39,0.21
2012-4-14,71.0,59.9,52.0,64.0,56.1,-99.9,96,89,72,0.00,40.00,19,6,37,0.07
2012-4-15,75.0,68.3,62.0,65.0,60.0,46.0,95,75,52,0.00,40.00,24,12,40,0.00
2012-4-16,63.0,54.5,46.0,49.0,42.1,38.0,95,65,40,0.00,40.00,28,13,39,0.04
2012-4-17,69.0,54.9,40.0,49.0,42.0,37.0,97,67,35,0.00,40.00,12,4,19,0.00
2012-4-18,75.0,63.0,50.0,55.0,49.9,46.0,88,64,41,0.00,40.00,15,6,22,0.00
2012-4-19,76.0,63.3,49.0,60.0,54.2,48.0,95,74,40,0.00,40.00,20,6,28,0.21
2012-4-20,54.0,47.6,42.0,48.0,39.8,35.0,96,76,49,0.00,40.00,19,11,31,0.00
2012-4-21,58.0,46.9,35.0,46.0,37.9,33.0,97,74,43,0.00,40.00,8,3,14,0.06
2012-4-22,59.0,50.1,42.0,46.0,38.5,27.0,96,69,30,0.00,40.00,17,6,24,0.76
2012-4-23,64.0,51.2,40.0,45.0,39.6,-99.9,96,69,36,0.00,40.00,16,0,24,0.00
2012-4-24,82.0,64.1,46.0,60.0,47.4,39.0,91,58,35,0.00,40.00,8,3,15,0.00
2012-4-25,84.0,68.4,54.0,67.0,59.9,52.0,95,76,51,0.00,40.00,9,3,16,0.00
2012-4-26,69.0,62.5,53.0,56.0,45.4,34.0,95,58,29,0.00,40.00,17,8,27,0.00
2012-4-27,59.0,53.2,47.0,41.0,30.8,26.0,72,43,30,0.00,40.00,27,15,38,0.00
2012-4-28,57.0,50.7,46.0,51.0,45.1,-99.9,95,83,57,0.00,40.00,21,10,31,0.01
2012-4-29,52.0,49.1,46.0,51.0,47.2,43.0,96,93,86,0.00,40.00,17,7,22,0.29
2012-4-30,66.0,55.1,51.0,53.0,51.2,50.0,96,87,58,0.00,40.00,7,4,11,0.00
2012-5-1,74.0,61.3,51.0,65.0,57.8,49.0,95,89,65,0.00,40.00,11,6,18,0.08
2012-5-2,78.0,69.6,61.0,71.0,66.0,60.0,95,88,72,0.00,40.00,17,6,29,0.50
2012-5-3,84.0,74.1,67.0,73.0,67.0,58.0,94,80,50,0.00,40.00,15,4,24,0.06
2012-5-4,82.0,71.6,64.0,69.0,65.8,63.0,95,83,58,0.00,40.00,17,7,27,0.22
2012-5-5,86.0,74.7,67.0,74.0,68.1,-99.9,94,82,62,0.00,40.00,17,8,26,0.00
2012-5-6,85.0,73.8,65.0,74.0,69.0,63.0,95,85,63,0.00,40.00,20,6,27,1.57
2012-5-7,72.0,65.4,57.0,63.0,54.6,47.0,95,71,42,0.00,40.00,17,9,29,0.19
2012-5-8,70.0,61.7,52.0,55.0,44.8,39.0,91,57,35,0.00,40.00,19,8,30,0.00
2012-5-9,69.0,57.8,48.0,53.0,47.6,43.0,94,71,41,0.00,40.00,13,7,18,0.00
2012-5-10,76.0,62.1,46.0,54.0,47.8,45.0,95,64,36,0.00,40.00,11,4,16,0.00
2012-5-11,81.0,69.3,56.0,60.0,54.6,48.0,87,61,43,0.00,40.00,12,6,21,0.00
2012-5-12,75.0,63.8,56.0,58.0,48.4,-99.9,88,60,35,0.00,40.00,15,6,23,0.00
2012-5-13,78.0,66.1,56.0,58.0,51.6,44.0,94,64,31,0.00,40.00,7,2,12,0.00
2012-5-14,81.0,65.8,47.0,54.0,45.3,39.0,95,55,24,0.00,40.00,9,-19,14,0.00
2012-5-15,86.0,72.7,58.0,57.0,49.2,39.0,57,44,32,0.00,40.00,14,6,24,0.00
2012-5-16,79.0,65.8,53.0,52.0,45.3,39.0,77,49,29,0.00,40.00,9,4,12,0.00
2012-5-17,79.0,66.0,53.0,52.0,44.3,39.0,93,50,27,0.00,40.00,15,7,22,0.00
2012-5-18,87.0,72.3,54.0,60.0,53.1,44.0,79,52,37,0.00,40.00,15,6,24,0.00
2012-5-19,87.0,76.6,66.0,64.0,58.6,-99.9,74,56,40,0.00,40.00,14,7,24,0.00
2012-5-20,76.0,71.7,58.0,65.0,59.2,49.0,80,65,50,0.00,40.00,17,9,24,0.00
2012-5-21,78.0,63.8,49.0,56.0,46.4,43.0,86,56,30,0.00,40.00,17,6,22,0.00
2012-5-22,81.0,67.5,51.0,54.0,49.4,46.0,95,58,31,0.00,40.00,12,4,18,0.00
2012-5-23,87.0,73.3,59.0,57.0,53.1,49.0,75,51,33,0.00,40.00,19,9,29,0.00
2012-5-24,85.0,76.3,66.0,70.0,61.1,53.0,90,60,51,0.00,40.00,18,10,30,0.00
2012-5-25,82.0,67.2,57.0,63.0,57.3,52.0,95,73,38,0.00,40.00,16,5,24,0.03
2012-5-26,92.0,77.6,65.0,74.0,66.3,56.0,84,69,51,0.00,40.00,14,7,23,0.01
2012-5-27,90.0,82.1,73.0,74.0,66.2,59.0,92,62,37,0.00,40.00,16,7,29,0.00
2012-5-28,90.0,80.6,69.0,67.0,61.2,49.0,74,52,32,0.00,40.00,16,8,27,0.00
2012-5-29,81.0,69.1,56.0,58.0,48.4,-99.9,95,53,27,0.00,40.00,16,-1,25,0.00
2012-5-30,76.0,64.0,50.0,51.0,45.0,41.0,93,54,29,0.00,40.00,12,5,17,0.00
2012-5-31,63.0,54.7,51.0,54.0,51.1,47.0,96,88,55,0.00,40.00,16,8,22,0.22
2012-6-1,71.0,59.8,48.0,51.0,45.8,41.0,96,64,35,0.00,40.00,12,6,17,0.00
2012-6-2,77.0,64.6,55.0,58.0,50.2,-99.9,93,64,41,0.00,40.00,15,-1,24,0.03
2012-6-3,85.0,71.3,54.0,65.0,56.6,51.0,95,64,35,0.00,40.00,9,3,12,0.00
2012-6-4,80.0,72.5,66.0,69.0,63.7,60.0,94,75,51,0.00,40.00,16,6,21,0.00
2012-6-5,83.0,71.8,58.0,64.0,59.0,56.0,95,67,42,0.00,40.00,12,4,17,0.00
2012-6-6,84.0,71.8,63.0,57.0,53.0,49.0,74,52,33,0.00,40.00,10,6,16,0.00
2012-6-7,85.0,71.9,56.0,62.0,53.2,48.0,94,57,29,0.00,40.00,7,2,12,0.00
2012-6-8,89.0,74.9,58.0,61.0,55.2,51.0,94,56,30,0.00,40.00,10,4,17,0.00
2012-6-9,91.0,77.9,61.0,61.0,56.3,-99.9,81,52,31,0.00,40.00,13,6,22,0.00
2012-6-10,91.0,80.9,69.0,68.0,64.7,61.0,80,59,41,0.00,40.00,18,8,27,0.00
2012-6-11,84.0,75.0,66.0,68.0,62.5,53.0,94,68,39,0.00,40.00,17,7,37,1.70
2012-6-12,76.0,66.3,55.0,58.0,48.2,41.0,93,56,29,0.00,40.00,15,6,23,0.00
2012-6-13,82.0,67.0,51.0,56.0,51.1,48.0,95,61,33,0.00,40.00,14,6,21,0.00
2012-6-14,90.0,76.2,61.0,61.0,56.6,52.0,84,54,32,0.00,40.00,15,8,26,0.00
2012-6-15,90.0,76.2,69.0,71.0,64.2,58.0,95,69,40,0.00,40.00,20,7,28,0.32
2012-6-16,91.0,73.2,65.0,75.0,68.0,-99.9,97,87,54,0.00,40.00,24,4,40,3.15
2012-6-17,89.0,77.1,63.0,71.0,62.5,53.0,97,66,32,0.00,40.00,12,5,23,0.00
2012-6-18,93.0,84.5,77.0,70.0,67.6,63.0,72,57,45,0.00,40.00,18,9,32,0.00
2012-6-19,92.0,83.3,73.0,70.0,66.4,61.0,73,57,45,0.00,40.00,16,8,29,0.00
2012-6-20,91.0,83.8,75.0,70.0,68.2,64.0,79,60,47,0.00,40.00,16,9,28,0.00
2012-6-21,83.0,73.6,65.0,68.0,60.9,53.0,94,68,37,0.00,40.00,18,7,24,0.18
2012-6-22,88.0,74.5,60.0,66.0,57.0,51.0,96,61,29,0.00,40.00,9,3,17,0.00
2012-6-23,79.0,71.2,65.0,68.0,62.2,57.0,94,74,51,0.00,40.00,11,4,20,0.05
2012-6-24,91.0,78.2,67.0,72.0,66.6,62.0,94,70,46,0.00,40.00,14,6,19,0.00
2012-6-25,82.0,75.2,69.0,72.0,58.3,-99.9,90,58,36,0.00,40.00,20,3,26,0.00
2012-6-26,86.0,72.5,57.0,59.0,53.3,47.0,70,52,35,0.00,40.00,14,7,21,0.00
2012-6-27,99.0,83.9,68.0,70.0,62.0,53.0,66,49,36,0.00,40.00,14,7,25,0.00
2012-6-28,99.0,90.2,84.0,82.0,73.8,67.0,87,59,50,0.00,40.00,12,6,20,0.01
2012-6-29,99.0,84.5,74.0,79.0,70.7,64.0,92,67,35,0.00,40.00,18,4,35,0.00
2012-6-30,95.0,84.2,71.0,78.0,70.5,66.0,90,65,43,0.00,40.00,9,4,21,0.00
2012-7-1,97.0,84.1,76.0,78.0,71.3,63.0,95,69,35,0.00,40.00,16,5,22,0.00
2012-7-2,98.0,86.8,73.0,74.0,68.1,65.0,91,57,34,0.00,40.00,11,4,19,0.00
2012-7-3,99.0,86.4,74.0,71.0,68.5,65.0,80,57,36,0.00,40.00,12,5,21,0.00
2012-7-4,100.0,93.4,84.0,69.0,66.0,64.0,57,41,33,0.00,40.00,10,4,16,0.00
2012-7-5,102.0,90.2,77.0,75.0,68.3,63.0,77,51,29,0.00,40.00,12,4,17,0.00
2012-7-6,104.0,90.2,74.0,76.0,68.6,63.0,93,55,27,0.00,40.00,12,3,19,0.00
2012-7-7,108.0,90.4,73.0,78.0,70.3,62.0,95,58,23,0.00,40.00,13,3,17,0.00
2012-7-8,88.0,81.2,75.0,75.0,62.1,-99.9,81,54,40,0.00,40.00,16,0,21,0.00
2012-7-9,93.0,81.4,70.0,68.0,63.4,59.0,80,56,33,0.00,40.00,16,5,21,0.00
2012-7-10,91.0,78.3,67.0,67.0,62.5,60.0,78,59,39,0.00,40.00,14,6,19,0.00
2012-7-11,90.0,78.7,67.0,63.0,58.4,54.0,75,52,33,0.00,40.00,14,8,18,0.00
2012-7-12,97.0,82.1,68.0,66.0,62.1,57.0,82,53,34,0.00,40.00,11,4,17,0.00
2012-7-13,92.0,80.1,71.0,70.0,66.8,62.0,92,65,43,0.00,40.00,14,4,25,0.00
2012-7-14,96.0,80.6,66.0,69.0,64.4,60.0,95,63,30,0.00,40.00,12,3,20,0.00
2012-7-15,101.0,86.9,72.0,70.0,65.5,60.0,92,53,29,0.00,40.00,7,3,14,0.00
2012-7-16,100.0,86.9,73.0,68.0,64.9,-99.9,83,50,34,0.00,40.00,11,-2,18,0.00
2012-7-17,102.0,89.5,76.0,69.0,67.2,64.0,75,50,32,0.00,40.00,9,4,18,0.00
2012-7-18,105.0,92.4,78.0,71.0,67.6,64.0,77,47,27,0.00,40.00,11,4,19,0.00
2012-7-19,94.0,84.0,73.0,75.0,69.2,66.0,88,63,43,0.00,40.00,16,8,25,0.00
2012-7-20,87.0,75.2,67.0,68.0,65.4,64.0,93,73,46,0.00,40.00,11,6,16,0.00
2012-7-21,98.0,81.5,67.0,69.0,63.3,58.0,95,59,28,0.00,40.00,10,4,15,0.00
2012-7-22,103.0,87.3,72.0,64.0,61.3,57.0,76,46,24,0.00,40.00,13,5,24,0.04
2012-7-23,109.0,93.1,77.0,68.0,64.1,62.0,68,41,23,0.00,40.00,14,5,19,0.00
2012-7-24,102.0,90.7,83.0,74.0,69.3,65.0,69,50,39,0.00,40.00,18,6,22,0.03
2012-7-25,105.0,92.7,79.0,75.0,68.4,63.0,85,49,28,0.00,40.00,17,8,30,0.06
2012-7-26,96.0,82.8,74.0,73.0,67.1,57.0,94,64,29,0.00,40.00,16,6,22,0.16
2012-7-27,87.0,78.3,69.0,67.0,61.4,58.0,83,57,39,0.00,40.00,17,8,22,0.11
2012-7-28,86.0,74.2,63.0,68.0,62.9,59.0,95,70,40,0.00,40.00,11,4,16,0.00
2012-7-29,95.0,80.3,67.0,70.0,65.8,64.0,95,65,37,0.00,40.00,29,7,37,0.33
2012-7-30,96.0,82.5,73.0,72.0,70.1,67.0,90,68,40,0.00,40.00,6,2,9,0.00
2012-7-31,95.0,84.1,72.0,72.0,65.3,56.0,94,58,28,0.00,40.00,11,4,15,0.00
2012-8-1,103.0,86.0,67.0,67.0,59.9,54.0,94,47,20,0.00,40.00,8,3,12,0.00
2012-8-2,98.0,83.4,73.0,67.0,64.0,61.0,77,53,34,0.00,40.00,11,5,15,0.00
2012-8-3,101.0,85.6,72.0,71.0,65.5,-99.9,80,54,31,0.00,40.00,13,-3,17,0.00
2012-8-4,89.0,78.8,71.0,78.0,71.1,65.0,95,78,61,0.00,40.00,24,6,30,0.07
2012-8-5,82.0,72.7,63.0,65.0,57.6,50.0,95,63,33,0.00,40.00,16,6,22,0.00
2012-8-6,96.0,75.2,56.0,61.0,54.4,51.0,97,56,23,0.00,40.00,9,3,12,0.00
2012-8-7,104.0,82.7,65.0,74.0,61.0,54.0,92,54,20,0.00,40.00,19,4,23,0.00
2012-8-8,88.0,76.9,70.0,72.0,66.8,60.0,94,74,39,0.00,40.00,21,4,30,0.01
2012-8-9,82.0,75.1,66.0,65.0,62.2,58.0,92,65,46,0.00,40.00,15,9,25,0.00
2012-8-10,79.0,68.1,59.0,62.0,56.2,52.0,95,69,39,0.00,40.00,14,8,22,0.00
2012-8-11,81.0,65.7,55.0,59.0,54.3,48.0,96,72,32,0.00,40.00,9,4,15,0.00
2012-8-12,79.0,68.2,63.0,65.0,58.7,51.0,95,73,43,0.00,40.00,16,6,24,0.11
2012-8-13,76.0,67.1,62.0,63.0,60.3,57.0,95,80,52,0.00,40.00,13,7,21,0.00
2012-8-14,87.0,72.8,58.0,61.0,54.8,49.0,96,59,29,0.00,40.00,9,3,12,0.00
2012-8-15,92.0,76.1,61.0,59.0,56.1,52.0,85,53,31,0.00,40.00,11,4,18,0.00
2012-8-16,79.0,71.5,60.0,69.0,58.2,50.0,95,64,43,0.00,40.00,21,9,32,0.47
2012-8-17,79.0,65.9,53.0,57.0,49.0,41.0,95,60,27,0.00,40.00,11,5,17,0.00
2012-8-18,80.0,65.5,50.0,58.0,47.9,42.0,96,59,27,0.00,40.00,11,4,16,0.00
2012-8-19,80.0,68.6,57.0,60.0,53.5,46.0,91,62,34,0.00,40.00,12,5,21,0.00
2012-8-20,82.0,69.3,54.0,59.0,51.9,47.0,95,60,31,0.00,40.00,11,4,17,0.00
2012-8-21,85.0,72.4,56.0,57.0,48.2,42.0,94,48,23,0.00,40.00,12,4,16,0.00
2012-8-22,99.0,78.2,60.0,57.0,52.0,47.0,73,44,21,0.00,40.00,7,3,11,0.00
2012-8-23,96.0,81.5,66.0,59.0,54.2,49.0,70,42,24,0.00,40.00,16,5,27,0.00
2012-8-24,95.0,80.0,66.0,63.0,56.3,53.0,76,47,26,0.00,40.00,16,5,27,0.00
2012-8-25,94.0,75.9,66.0,69.0,61.9,57.0,94,65,30,0.00,40.00,22,5,29,0.12
2012-8-26,80.0,74.1,70.0,74.0,70.0,67.0,94,87,66,0.00,40.00,11,4,19,0.24
2012-8-27,92.0,76.3,64.0,72.0,63.4,56.0,95,70,31,0.00,40.00,7,3,11,0.01
2012-8-28,96.0,79.3,65.0,67.0,62.4,58.0,94,62,28,0.00,40.00,7,2,10,0.00
2012-8-29,97.0,81.0,67.0,67.0,61.6,56.0,94,57,28,0.00,40.00,11,5,17,0.00
2012-8-30,99.0,83.5,69.0,66.0,59.7,54.0,79,48,23,0.00,40.00,12,5,21,0.00
2012-8-31,87.0,78.5,68.0,72.0,65.3,59.0,87,64,50,0.00,40.00,9,4,14,0.00
2012-9-1,78.0,74.4,71.0,73.0,67.9,57.0,91,80,59,0.00,40.00,17,11,27,0.02
2012-9-2,87.0,76.0,67.0,72.0,64.5,57.0,93,68,53,0.00,40.00,11,5,14,0.00
2012-9-3,96.0,80.7,67.0,72.0,67.2,64.0,94,68,35,0.00,40.00,9,3,16,0.00
2012-9-4,100.0,85.3,72.0,73.0,68.3,62.0,93,61,31,0.00,40.00,7,3,12,0.00
2012-9-5,92.0,79.1,65.0,71.0,63.8,61.0,91,62,38,0.00,40.00,26,7,43,0.01
2012-9-6,90.0,74.5,60.0,63.0,54.5,48.0,91,56,25,0.00,40.00,9,4,12,0.00
2012-9-7,79.0,69.0,59.0,66.0,59.3,49.0,91,71,56,0.00,40.00,19,8,27,0.04
2012-9-8,79.0,64.5,50.0,50.0,45.1,-99.9,91,55,28,0.00,40.00,19,1,28,0.00
2012-9-9,78.0,64.9,52.0,55.0,48.6,43.0,86,57,36,0.00,40.00,12,6,21,0.00
2012-9-10,84.0,66.7,49.0,54.0,48.0,44.0,96,58,26,0.00,40.00,15,6,22,0.00
2012-9-11,93.0,74.6,58.0,56.0,52.7,50.0,84,51,24,0.00,40.00,17,7,24,0.00
2012-9-12,92.0,75.8,62.0,59.0,54.7,42.0,87,51,28,0.00,40.00,13,6,27,0.00
2012-9-13,63.0,56.5,52.0,55.0,51.5,42.0,96,84,46,0.00,40.00,22,7,32,0.15
2012-9-14,78.0,60.0,47.0,56.0,45.7,37.0,96,67,25,0.00,40.00,6,2,10,0.00
2012-9-15,82.0,64.2,47.0,56.0,45.5,39.0,95,59,23,0.00,40.00,9,3,16,0.00
2012-9-16,78.0,63.3,47.0,61.0,51.9,46.0,95,69,43,0.00,40.00,10,3,15,0.00
2012-9-17,77.0,61.0,50.0,63.0,56.3,49.0,96,85,52,0.00,40.00,14,4,26,0.39
2012-9-18,67.0,54.2,45.0,49.0,39.3,29.0,96,63,26,0.00,40.00,17,6,22,0.01
2012-9-19,83.0,64.5,46.0,58.0,43.5,38.0,85,50,29,0.00,40.00,18,8,35,0.01
2012-9-20,73.0,61.9,49.0,49.0,39.7,31.0,91,49,22,0.00,40.00,21,5,28,0.05
2012-9-21,76.0,60.7,52.0,49.0,46.1,43.0,87,61,34,0.00,40.00,17,5,26,0.01
2012-9-22,63.0,53.0,44.0,49.0,35.9,-99.9,91,56,34,0.00,40.00,18,8,28,0.03
2012-9-23,66.0,50.2,36.0,40.0,33.7,26.0,97,61,22,0.00,40.00,14,5,21,0.00
2012-9-24,78.0,57.7,36.0,45.0,36.4,33.0,96,53,21,0.00,40.00,11,4,18,0.00
2012-9-25,87.0,69.7,59.0,59.0,53.1,45.0,91,58,33,0.00,40.00,9,2,10,0.00
2012-9-26,78.0,64.3,54.0,57.0,42.7,35.0,91,49,24,0.00,40.00,11,4,15,0.00
2012-9-27,76.0,61.0,47.0,47.0,40.8,36.0,94,51,27,0.00,40.00,11,5,14,0.00
2012-9-28,74.0,58.3,43.0,49.0,42.4,37.0,96,62,27,0.00,40.00,9,2,13,0.00
2012-9-29,85.0,61.8,43.0,51.0,43.4,39.0,96,60,20,0.00,40.00,9,3,12,0.00
2012-9-30,81.0,64.0,48.0,51.0,44.2,39.0,94,55,24,0.00,40.00,10,4,17,0.01
2012-10-1,76.0,61.9,53.0,51.0,46.0,43.0,80,58,33,0.00,40.00,7,3,11,0.01
2012-10-2,80.0,62.7,50.0,53.0,48.3,43.0,93,64,29,0.00,40.00,7,3,12,0.02
2012-10-3,83.0,64.1,46.0,50.0,45.0,42.0,96,58,24,0.00,40.00,9,3,13,0.00
2012-10-4,63.0,53.6,46.0,53.0,46.5,40.0,95,77,55,0.00,40.00,16,5,24,0.38
2012-10-5,48.0,44.3,38.0,41.0,30.9,26.0,77,59,44,0.00,40.00,19,6,27,0.00
2012-10-6,48.0,39.8,31.0,29.0,26.2,23.0,72,58,44,0.00,40.00,14,8,20,0.00
2012-10-7,56.0,42.9,30.0,30.0,25.2,21.0,88,53,26,0.00,40.00,10,4,16,0.00
2012-10-8,65.0,50.4,35.0,35.0,31.3,26.0,78,50,31,0.00,40.00,16,7,29,0.00
2012-10-9,62.0,51.5,43.0,45.0,39.2,34.0,91,64,45,0.00,40.00,21,7,31,0.07
2012-10-10,61.0,45.8,34.0,36.0,29.5,21.0,91,58,24,0.00,40.00,16,5,25,0.01
2012-10-11,75.0,55.5,43.0,44.0,34.8,29.0,64,47,31,0.00,40.00,19,7,25,0.20
2012-10-12,63.0,51.7,40.0,48.0,30.0,24.0,85,44,26,0.00,40.00,16,9,20,0.01
2012-10-13,71.0,61.5,53.0,65.0,57.7,48.0,96,87,76,0.00,40.00,22,7,36,1.16
2012-10-14,65.0,58.0,47.0,64.0,53.2,44.0,95,84,62,0.00,40.00,25,9,33,1.46
2012-10-15,72.0,54.3,42.0,46.0,40.8,35.0,95,66,28,0.00,40.00,6,2,9,0.00
2012-10-16,80.0,64.2,51.0,52.0,47.5,43.0,75,57,33,0.00,40.00,16,6,27,0.00
2012-10-17,67.0,60.2,52.0,55.0,47.9,31.0,91,64,44,0.00,40.00,24,8,35,0.12
2012-10-18,52.0,48.2,45.0,46.0,36.0,25.0,95,65,37,0.00,40.00,21,10,35,0.38
2012-10-19,55.0,48.1,44.0,46.0,43.1,40.0,95,83,61,0.00,40.00,20,11,26,0.02
2012-10-20,63.0,51.2,45.0,45.0,43.1,41.0,91,75,45,0.00,40.00,11,4,16,0.00
2012-10-21,81.0,60.8,45.0,61.0,50.8,44.0,95,72,44,0.00,40.00,12,6,18,0.00
2012-10-22,73.0,68.3,64.0,67.0,64.0,59.0,94,86,75,0.00,40.00,12,5,16,0.14
2012-10-23,76.0,70.3,66.0,66.0,63.0,58.0,91,78,64,0.00,40.00,16,8,27,0.07
2012-10-24,82.0,73.8,67.0,66.0,63.9,62.0,91,72,53,0.00,40.00,16,8,29,0.00
2012-10-25,74.0,55.4,40.0,62.0,46.8,28.0,94,73,60,0.00,40.00,26,16,38,0.12
2012-10-26,48.0,40.1,32.0,30.0,26.4,24.0,81,58,42,0.00,40.00,21,9,28,0.00
2012-10-27,48.0,37.3,28.0,31.0,25.1,21.0,96,65,37,0.00,40.00,9,4,13,0.00
2012-10-28,51.0,37.8,27.0,31.0,25.1,18.0,96,66,28,0.00,40.00,8,3,12,0.00
2012-10-29,53.0,38.8,28.0,34.0,29.1,25.0,95,71,36,0.00,40.00,7,2,9,0.00
2012-10-30,56.0,41.5,29.0,32.0,27.8,25.0,97,64,30,0.00,40.00,16,7,22,0.00
2012-10-31,53.0,41.2,31.0,32.0,26.1,20.0,83,58,27,0.00,40.00,14,7,20,0.00
2012-11-1,64.0,45.1,34.0,40.0,34.7,30.0,89,70,39,0.00,40.00,13,3,19,0.00
2012-11-2,50.0,44.9,36.0,33.0,30.0,29.0,76,56,45,0.00,40.00,12,9,17,0.00
2012-11-3,56.0,45.6,36.0,36.0,31.6,29.0,91,59,40,0.00,40.00,11,5,16,0.00
2012-11-4,49.0,41.8,33.0,40.0,35.5,32.0,96,79,58,0.00,40.00,9,4,14,0.04
2012-11-5,44.0,41.9,40.0,40.0,37.2,35.0,95,84,71,0.00,40.00,12,7,20,0.07
2012-11-6,53.0,44.6,40.0,43.0,38.0,35.0,95,78,55,0.00,40.00,16,7,28,0.00
2012-11-7,50.0,43.8,35.0,36.0,33.7,31.0,93,68,50,0.00,40.00,17,6,28,0.00
2012-11-8,60.0,45.5,33.0,39.0,34.9,31.0,96,70,39,0.00,40.00,14,7,20,0.00
2012-11-9,66.0,54.9,44.0,53.0,44.8,39.0,83,69,48,0.00,40.00,9,6,14,0.00
2012-11-10,76.0,66.2,58.0,56.0,52.7,46.0,89,64,44,0.00,40.00,19,11,32,0.00
2012-11-11,66.0,46.5,28.0,58.0,40.1,15.0,96,80,52,0.00,40.00,21,11,29,1.82
2012-11-12,39.0,31.2,24.0,18.0,16.3,14.0,68,54,40,0.00,40.00,23,9,31,0.05
2012-11-13,52.0,36.8,23.0,27.0,22.8,18.0,90,60,32,0.00,40.00,9,4,14,0.00
2012-11-14,59.0,44.7,36.0,32.0,26.7,-99.9,72,52,28,0.00,40.00,12,5,17,0.00
2012-11-15,60.0,45.2,34.0,35.0,30.9,27.0,94,59,36,0.00,40.00,9,4,15,0.00
2012-11-16,61.0,41.4,31.0,35.0,32.9,30.0,95,75,35,0.00,40.00,7,3,9,0.00
2012-11-17,62.0,45.2,32.0,35.0,31.8,28.0,97,64,31,0.00,40.00,14,6,19,0.00
2012-11-18,62.0,49.5,37.0,34.0,31.6,29.0,80,52,33,0.00,40.00,11,7,17,0.00
2012-11-19,62.0,52.3,45.0,48.0,43.6,31.0,96,74,45,0.00,40.00,13,6,18,0.08
2012-11-20,62.0,46.1,38.0,44.0,41.0,37.0,97,84,49,0.00,40.00,8,4,11,0.03
2012-11-21,70.0,50.7,35.0,50.0,38.2,35.0,96,68,29,0.00,40.00,10,6,20,0.00
2012-11-22,67.0,54.3,41.0,48.0,38.8,31.0,67,56,41,0.00,40.00,25,11,35,0.00
2012-11-23,41.0,32.5,24.0,31.0,19.0,13.0,71,57,50,0.00,40.00,29,17,38,0.00
2012-11-24,37.0,27.6,20.0,22.0,16.9,13.0,75,64,49,0.00,40.00,12,6,17,0.00
2012-11-25,42.0,37.2,31.0,28.0,25.5,21.0,85,62,55,0.00,40.00,14,5,19,0.00
2012-11-26,34.0,29.6,19.0,28.0,18.0,10.0,85,61,53,0.00,40.00,17,8,22,0.00
2012-11-27,38.0,25.7,14.0,16.0,12.9,10.0,87,60,37,0.00,40.00,11,3,17,0.00
2012-11-28,51.0,33.9,21.0,30.0,22.9,15.0,94,67,36,0.00,40.00,9,2,11,0.00
2012-11-29,56.0,40.6,31.0,35.0,31.5,27.0,94,72,44,0.00,40.00,10,4,16,0.00
2012-11-30,56.0,40.4,28.0,38.0,33.5,28.0,97,78,47,0.00,40.00,9,2,12,0.00
2012-12-1,59.0,47.7,32.0,55.0,45.2,31.0,96,91,83,0.00,40.00,8,4,12,0.00
2012-12-2,54.0,50.5,45.0,53.0,49.2,44.0,96,95,91,0.00,40.00,9,3,14,0.00
2012-12-3,71.0,58.3,49.0,58.0,49.5,35.0,95,74,51,0.00,40.00,22,9,32,0.00
2012-12-4,63.0,46.8,34.0,35.0,28.8,22.0,90,54,22,0.00,40.00,18,5,21,0.00
2012-12-5,48.0,39.0,30.0,35.0,26.8,20.0,73,61,47,0.00,40.00,12,6,18,0.00
2012-12-6,53.0,45.2,42.0,41.0,35.3,-99.9,92,71,57,0.00,40.00,12,6,18,0.07
2012-12-7,43.0,40.8,37.0,41.0,36.0,32.0,95,83,69,0.00,40.00,9,4,13,0.04
2012-12-8,44.0,36.7,32.0,36.0,32.7,30.0,96,85,56,0.00,40.00,9,5,14,0.00
2012-12-9,41.0,35.9,24.0,39.0,31.7,15.0,96,85,68,0.00,40.00,21,9,29,0.00
2012-12-10,32.0,24.1,18.0,17.0,15.4,13.0,88,69,50,0.00,40.00,21,9,27,0.00
2012-12-11,42.0,29.2,17.0,18.0,15.5,11.0,88,58,35,0.00,40.00,11,4,19,0.00
2012-12-12,51.0,38.1,27.0,22.0,17.7,14.0,68,46,25,0.00,40.00,15,7,25,0.00
2012-12-13,52.0,39.2,29.0,25.0,20.3,16.0,84,48,32,0.00,40.00,17,6,24,0.00
2012-12-14,56.0,40.3,26.0,43.0,28.3,24.0,92,67,34,0.00,40.00,14,6,21,0.01
2012-12-15,53.0,47.1,42.0,49.0,43.7,37.0,95,88,72,0.00,40.00,16,8,22,0.24
2012-12-16,44.0,38.2,34.0,39.0,33.4,31.0,88,82,80,0.00,40.00,14,7,19,0.00
2012-12-17,40.0,33.8,31.0,31.0,28.6,27.0,89,81,61,0.00,40.00,7,3,9,0.00
2012-12-18,50.0,37.1,33.0,35.0,31.0,27.0,95,79,46,0.00,40.00,24,10,36,0.00
2012-12-19,38.0,35.4,34.0,36.0,32.5,30.0,97,88,82,0.00,40.00,17,8,26,0.34
2012-12-20,36.0,28.5,19.0,36.0,25.3,12.0,98,87,71,0.00,40.00,37,24,52,0.40
2012-12-21,31.0,20.3,14.0,14.0,10.0,7.0,89,65,43,0.00,40.00,22,11,29,0.00
2012-12-22,41.0,24.4,13.0,24.0,16.6,11.0,94,75,39,0.00,40.00,11,4,16,0.00
2012-12-23,30.0,23.2,16.0,22.0,17.1,13.0,94,78,56,0.00,40.00,10,5,16,0.00
2012-12-24,24.0,20.9,17.0,22.0,16.4,11.0,96,82,64,0.00,40.00,20,11,26,0.00
2012-12-25,19.0,14.0,9.0,11.0,7.0,3.0,78,73,64,0.00,40.00,17,8,22,0.00
2012-12-26,23.0,17.5,12.0,16.0,11.1,6.0,85,75,70,0.00,40.00,13,8,19,0.00
2012-12-27,30.0,21.8,11.0,22.0,16.1,9.0,92,79,61,0.00,40.00,12,5,18,0.00
2012-12-28,33.0,29.2,26.0,27.0,24.7,22.0,92,82,74,0.00,40.00,11,4,16,0.01
2012-12-29,26.0,20.8,15.0,24.0,14.6,10.0,91,77,58,0.00,40.00,17,9,26,0.00
2012-12-30,43.0,28.8,13.0,25.0,18.3,11.0,93,68,43,0.00,40.00,14,5,22,0.00
2012-12-31,40.0,25.5,18.0,23.0,15.8,9.0,74,66,45,0.00,40.00,14,9,23,0.00
2013-1-1,24.0,14.3,6.0,9.0,4.9,0.0,84,66,45,0.00,40.00,12,5,17,0.00